Weather in Lobanovka

Russia / Bryansk Oblast     52°24′27″N   32°19′34″E
temp.,
°C
wind,
m/s
gust,
m/s
humid.,
%
clouds,
%
prec.,
mm/h
press.,
hPa
HPBL,
m
8 march, mon
mon800:00−3wsw4991100 0.7 1005223
03:00−4w4996100 0.8 1005298
06:00−4w4109599 0.2 1005288
09:00−5wnw5109497 0.3 1006527
12:00−3wnw578896 0.1 1008789
15:00−2wnw578398 0.4 10071016
18:00−4wnw3686100 0.5 1009149
21:00−7nnw4108998 0.8 1011238
9 march, tue
tue900:00−10nw369630 0.0 101398
03:00−11nnw489639 0.0 1015160
06:00−13nnw479643 0.0 1017138
09:00−12nnw599443 0.0 1019277
12:00−8nnw578413 0.0 1020648
15:00−6nnw578033 0.0 1021999
18:00−7nnw3690100 0.1 1022221
21:00−11nnw349272 0.1 102433
10 march, wed
wed1000:00−13nnw22910 0.0 102521
03:00−14w22900 0.0 102620
06:00−13sw238830 0.0 102620
09:00−10sw368863 0.0 1026200
12:00−5wsw5782100 0.0 1026636
15:00−3wnw577999 0.0 1026843
18:00−4wnw3686100 0.0 1026189
21:00−10ene5995100 0.2 1028258
11 march, thu
thu1100:00−13e499587 0.0 1030210
03:00−16e479660 0.1 1031136
06:00−18e469451 0.0 1032127
09:00−17ese478650 0.0 1033211
12:00−12ese46870 0.0 1032285
15:00−9se46880 0.0 1031393
18:00−10se47925 0.0 1029259
21:00−13se599616 0.0 1029184
12 march, fri
fri1200:00−12sse51196100 0.0 1027239
03:00−10sse61393100 0.0 1024322
06:00−7sse81785100 0.0 1021550
09:00−5s101881100 0.0 1018852
12:00−3s121994100 1.4 10161071
15:00−1ssw121996100 4.4 10131169
18:000ssw101696100 2.0 1012916
21:00+1ssw71298100 4.0 1012416